Satellite: INMARSAT 3-F1
Catalog number: 23839
Epoch time:      103064.69458140
Element set:     881 
Inclination:        0.0620 deg
RA of node:       330.2476 deg
Eccentricity:    0.0002125
Arg of perigee:   288.1404 deg
Mean anomaly:     218.5494 deg
Mean motion:    1.00271727 rev/day
Decay rate:    1.1000E-007 rev/day^2
Epoch rev:            2536
Checksum:              261

Satellite: ASTRA 1F
Catalog number: 23842
Epoch time:      103064.00000000
Element set:     562 
Inclination:        0.0122 deg
RA of node:       319.8851 deg
Eccentricity:    0.0002995
Arg of perigee:    65.1991 deg
Mean anomaly:     156.4263 deg
Mean motion:    1.00273184 rev/day
Decay rate:    1.1099E-006 rev/day^2
Epoch rev:            2526
Checksum:              245

Satellite: JAS 2
Catalog number: 24278
Epoch time:      103066.84790597
Element set:     565 
Inclination:       98.5410 deg
RA of node:       215.7265 deg
Eccentricity:    0.0350662
Arg of perigee:   171.5782 deg
Mean anomaly:     189.1480 deg
Mean motion:   13.52874337 rev/day
Decay rate:    6.1999E-007 rev/day^2
Epoch rev:           32364
Checksum:              442

Satellite: UNAMSAT
Catalog number: 24305
Epoch time:      103064.93241308
Element set:     668 
Inclination:       82.9274 deg
RA of node:       251.4119 deg
Eccentricity:    0.0029288
Arg of perigee:   157.3725 deg
Mean anomaly:     202.8709 deg
Mean motion:   13.73454245 rev/day
Decay rate:    2.0499E-006 rev/day^2
Epoch rev:           32559
Checksum:              319

Satellite: INMARSAT 3-F2
Catalog number: 24307
Epoch time:      103064.96224752
Element set:     91 
Inclination:        0.0498 deg
RA of node:       345.5747 deg
Eccentricity:    0.0004993
Arg of perigee:     9.7076 deg
Mean anomaly:     138.9055 deg
Mean motion:    1.00272827 rev/day
Decay rate:   -1.2799E-006 rev/day^2
Epoch rev:            2377
Checksum:              315

Satellite: HOT BIRD 2
Catalog number: 24665
Epoch time:      103054.87288413
Element set:     344 
Inclination:        0.0674 deg
RA of node:       252.7220 deg
Eccentricity:    0.0007661
Arg of perigee:    70.4027 deg
Mean anomaly:     157.3662 deg
Mean motion:    1.00270188 rev/day
Decay rate:    7.5999E-007 rev/day^2
Epoch rev:            2331
Checksum:              394

Satellite: INMARSAT 3-F3
Catalog number: 24674
Epoch time:      103065.60077771
Element set:     3 
Inclination:        0.0465 deg
RA of node:       312.2906 deg
Eccentricity:    0.0003294
Arg of perigee:   356.7126 deg
Mean anomaly:     249.2867 deg
Mean motion:    1.00275029 rev/day
Decay rate:    3.7000E-007 rev/day^2
Epoch rev:            2274
Checksum:              273

Satellite: GOES 10
Catalog number: 24786
Epoch time:      103065.74861774
Element set:     576 
Inclination:        0.1740 deg
RA of node:       103.2309 deg
Eccentricity:    0.0002239
Arg of perigee:   282.2354 deg
Mean anomaly:     272.6190 deg
Mean motion:    1.00265222 rev/day
Decay rate:    8.8000E-007 rev/day^2
Epoch rev:            2149
Checksum:              271

Satellite: INMARSAT 3-F4
Catalog number: 24819
Epoch time:      103064.70598575
Element set:     893 
Inclination:        0.0564 deg
RA of node:       302.6467 deg
Eccentricity:    0.0004680
Arg of perigee:    60.0221 deg
Mean anomaly:       0.5213 deg
Mean motion:    1.00271137 rev/day
Decay rate:   -2.9099E-006 rev/day^2
Epoch rev:            2116
Checksum:              387

Satellite: FENGYUN 2A
Catalog number: 24834
Epoch time:      103066.71465027
Element set:     975 
Inclination:        2.6150 deg
RA of node:        88.2678 deg
Eccentricity:    0.0001099
Arg of perigee:   235.2279 deg
Mean anomaly:     184.9655 deg
Mean motion:    1.00278434 rev/day
Decay rate:   -1.9599E-006 rev/day^2
Epoch rev:            2101
Checksum:              313

Satellite: HOT BIRD 3
Catalog number: 24931
Epoch time:      103054.87288413
Element set:     428 
Inclination:        0.1004 deg
RA of node:       298.5607 deg
Eccentricity:    0.0010424
Arg of perigee:    36.2408 deg
Mean anomaly:     145.6862 deg
Mean motion:    1.00270404 rev/day
Decay rate:    7.5000E-007 rev/day^2
Epoch rev:            2013
Checksum:              248

Satellite: METEOSAT 7
Catalog number: 24932
Epoch time:      103065.97326969
Element set:     257 
Inclination:        0.2481 deg
RA of node:        73.1630 deg
Eccentricity:    0.0001095
Arg of perigee:   216.2113 deg
Mean anomaly:     225.6370 deg
Mean motion:    1.00262878 rev/day
Decay rate:   -3.9999E-008 rev/day^2
Epoch rev:            2018
Checksum:              299

Satellite: ASTRA 1G
Catalog number: 25071
Epoch time:      103064.00000000
Element set:     394 
Inclination:        0.0122 deg
RA of node:       319.8851 deg
Eccentricity:    0.0002995
Arg of perigee:    65.1991 deg
Mean anomaly:     156.4370 deg
Mean motion:    1.00273184 rev/day
Decay rate:    1.1099E-006 rev/day^2
Epoch rev:            1928
Checksum:              248

Satellite: INMARSAT 3-F5
Catalog number: 25153
Epoch time:      103064.83099755
Element set:     853 
Inclination:        0.4578 deg
RA of node:       353.8307 deg
Eccentricity:    0.0004423
Arg of perigee:   227.6819 deg
Mean anomaly:     265.8219 deg
Mean motion:    1.00270482 rev/day
Decay rate:    1.3500E-006 rev/day^2
Epoch rev:            1865
Checksum:              303

Satellite: HOT BIRD 4
Catalog number: 25237
Epoch time:      103055.98151369
Element set:     330 
Inclination:        0.0547 deg
RA of node:       293.1775 deg
Eccentricity:    0.0007524
Arg of perigee:   338.0934 deg
Mean anomaly:     249.5459 deg
Mean motion:    1.00273950 rev/day
Decay rate:    7.4000E-007 rev/day^2
Epoch rev:            1860
Checksum:              290

Satellite: NOAA 15
Catalog number: 25338
Epoch time:      103066.59933102
Element set:     31 
Inclination:       98.5491 deg
RA of node:        88.2874 deg
Eccentricity:    0.0009605
Arg of perigee:   269.1601 deg
Mean anomaly:      90.8478 deg
Mean motion:   14.24251941 rev/day
Decay rate:    2.0200E-006 rev/day^2
Epoch rev:           25022
Checksum:              402

Satellite: RESURS O1-N4
Catalog number: 25394
Epoch time:      103066.50082103
Element set:     464 
Inclination:       98.6295 deg
RA of node:       144.1142 deg
Eccentricity:    0.0002370
Arg of perigee:    66.7147 deg
Mean anomaly:     293.4282 deg
Mean motion:   14.23883406 rev/day
Decay rate:    1.5399E-006 rev/day^2
Epoch rev:           24194
Checksum:              307

Satellite: TMSAT
Catalog number: 25396
Epoch time:      103064.92899752
Element set:     831 
Inclination:       98.6237 deg
RA of node:       141.7299 deg
Eccentricity:    0.0003703
Arg of perigee:    92.2338 deg
Mean anomaly:     267.9267 deg
Mean motion:   14.23515350 rev/day
Decay rate:   -4.3000E-007 rev/day^2
Epoch rev:           24171
Checksum:              316

Satellite: TECHSAT 1B
Catalog number: 25397
Epoch time:      103064.95678976
Element set:     181 
Inclination:       98.6197 deg
RA of node:       140.6211 deg
Eccentricity:    0.0002154
Arg of perigee:    94.8506 deg
Mean anomaly:     265.2918 deg
Mean motion:   14.22962751 rev/day
Decay rate:    5.3000E-007 rev/day^2
Epoch rev:           24168
Checksum:              323

Satellite: ASTRA 2A
Catalog number: 25462
Epoch time:      103064.00000000
Element set:     536 
Inclination:        0.0385 deg
RA of node:       308.7109 deg
Eccentricity:    0.0004824
Arg of perigee:   280.8620 deg
Mean anomaly:     320.9573 deg
Mean motion:    1.00272094 rev/day
Decay rate:    1.4099E-006 rev/day^2
Epoch rev:            1658
Checksum:              248

Satellite: EUTELSAT W2
Catalog number: 25491
Epoch time:      103065.98472802
Element set:     585 
Inclination:        0.0087 deg
RA of node:       231.6351 deg
Eccentricity:    0.0003538
Arg of perigee:   114.2061 deg
Mean anomaly:     188.9050 deg
Mean motion:    1.00273114 rev/day
Decay rate:    1.0200E-006 rev/day^2
Epoch rev:            1621
Checksum:              243

Satellite: HOT BIRD 5
Catalog number: 25495
Epoch time:      103063.86782987
Element set:     503 
Inclination:        0.0348 deg
RA of node:       115.8222 deg
Eccentricity:    0.0002188
Arg of perigee:   119.7671 deg
Mean anomaly:     265.0383 deg
Mean motion:    1.00131550 rev/day
Decay rate:    1.2299E-006 rev/day^2
Epoch rev:            1616
Checksum:              287

Satellite: SEDSAT 1
Catalog number: 25509
Epoch time:      103066.15748924
Element set:     795 
Inclination:       31.4296 deg
RA of node:        59.4814 deg
Eccentricity:    0.0357070
Arg of perigee:    87.7174 deg
Mean anomaly:  276.4274 deg
Mean motion:   14.27453048 rev/day
Decay rate:    6.1800E-006 rev/day^2
Epoch rev:           22768
Checksum:              333

Satellite: PAN SAT
Catalog number: 25520
Epoch time:      103065.51255108
Element set:     645 
Inclination:       28.4585 deg
RA of node:       117.6462 deg
Eccentricity:    0.0006003
Arg of perigee:   163.6528 deg
Mean anomaly:     196.4292 deg
Mean motion:   15.13960137 rev/day
Decay rate:    3.2420E-005 rev/day^2
Epoch rev:           24000
Checksum:              269

Satellite: ISS (ZARYA)
Catalog number: 25544
Epoch time:      103066.83634259
Element set:     757 
Inclination:       51.6368 deg
RA of node:       169.2834 deg
Eccentricity:    0.0011779
Arg of perigee:   289.0759 deg
Mean anomaly:     197.8703 deg
Mean motion:   15.59356585 rev/day
Decay rate:    3.3678E-004 rev/day^2
Epoch rev:           24519
Checksum:              368

